Location: Escondida
(34.1015°N, 106.8964°W)
Time: 15:12:23
(UTC+00:00)

SRMSAT - Visible Passes

Search period start: 19 April 2026 00:00
Search period end: 29 April 2026 00:00
Orbit: 846 x 862 km, 20.0° (Epoch: 19 April)

Date Brightness Start Highest point End Pass type
(mag) Time Alt. Az. Time Alt. Az. Time Alt. Az.
19 Apr ? 03:01:53 10° SW 03:06:09 20° S 03:07:42 18° SSE visible
20 Apr ? 02:47:50 10° SW 02:52:06 20° S 02:54:40 16° SSE visible
21 Apr ? 02:33:49 10° SW 02:38:02 20° S 02:41:36 12° SE visible
21 Apr ? 04:23:19 10° SW 04:23:32 11° SW 04:23:32 11° SW visible
22 Apr ? 02:19:49 10° SW 02:23:59 20° S 02:28:10 10° SE visible
22 Apr ? 04:09:35 10° SW 04:10:28 12° SW 04:10:28 12° SW visible
23 Apr ? 02:05:49 10° SW 02:09:55 19° S 02:14:02 10° SE visible
23 Apr ? 03:55:57 10° SW 03:57:22 12° SSW 03:57:22 12° SSW visible
24 Apr ? 03:42:29 10° SSW 03:44:15 11° SSW 03:44:17 11° SSW visible
25 Apr ? 03:29:34 10° SSW 03:30:11 10° SSW 03:30:48 10° S visible
